Flag for West Bank Weather past 2 weeks in Nablus, West Bank

Now
79 °F

Sunny.


Feels Like: 79 °F
Forecast: 53 / 73 °F
Wind: 7 mph from Northwest

Location: Ben Gurion International Airport

Current Time: Mar 28, 2015 at 1:25:11 PM

Latest Report: Mar 28, 2015 at 12:50 PM


Visibility: 10 mi

Pressure: 29.86 "Hg

Humidity: 39%

Dew point: 52 °F

Location of NablusLocation

Historic Weather in Nablus — Graph

°F

Nablus temperature yesterday

Maximum temperature yesterday: 90 °F (at 1:20 PM)
Minimum temperature yesterday: 59 °F (at 2:50 AM)
Average temperature yesterday: 79 °F

Past Weeks' High & Low Weather Summary

 TemperatureHumidityPressure
High90 °F (Mar 27, 1:20 PM)88% (Mar 14, 2:50 AM)30.18 "Hg (Mar 14, 2:50 AM)
Low48 °F (Mar 23, 5:50 AM)17% (Mar 27, 1:20 PM)29.62 "Hg (Mar 28, 4:50 AM)
Average62 °F60%30.03 "Hg
* Reported Mar 13 11:20 AM — Mar 28 12:20 PM, Nablus, Weather by CustomWeather, © 2015

Note: Actual official high and low records may vary slightly from our data, if they occured in-between our weather recording intervals... More about our weather records

Advertising

Nablus weather history for previous 24 hours

 ConditionsComfort  
Time TempWeatherWind HumidityBarometerVisibility
12:20 PM
Sat, Mar 28
77 °FSunny.8 mph42%29.86 "Hg10 mi
11:50 AM77 °FClear.10 mph44%29.86 "Hg6 mi
11:20 AM77 °FClear.7 mph44%29.86 "Hg6 mi
10:50 AM77 °FClear.9 mph44%29.83 "Hg6 mi
10:20 AM77 °FClear.14 mph42%29.80 "Hg6 mi
9:50 AM75 °FClear.17 mph50%29.80 "Hg6 mi
9:20 AM81 °FSunny.9 mph30%29.77 "Hg10 mi
8:50 AM79 °FSunny.9 mph37%29.74 "Hg10 mi
8:20 AM77 °FSunny.3 mph39%29.74 "Hg10 mi
7:50 AM75 °FSunny.15 mph36%29.71 "Hg10 mi
7:20 AM77 °FClear.6 mph30%29.68 "Hg10 mi
6:20 AM79 °FClear.5 mph24%29.65 "Hg10 mi
5:50 AM79 °FClear.6 mph24%29.65 "Hg10 mi
5:20 AM81 °FClear.7 mph23%29.65 "Hg10 mi
4:50 AM81 °FClear.9 mph23%29.62 "Hg10 mi
4:20 AM81 °FClear.16 mph21%29.65 "Hg10 mi
3:50 AM82 °FClear.20 mph20%29.65 "Hg10 mi
3:20 AM82 °FClear.16 mph20%29.65 "Hg10 mi
2:50 AM82 °FClear.17 mph20%29.65 "Hg10 mi
2:20 AM82 °FClear.21 mph20%29.68 "Hg10 mi
1:50 AM82 °FClear.20 mph20%29.68 "Hg10 mi
1:20 AM84 °FClear.18 mph19%29.71 "Hg10 mi
11:50 PM
Fri, Mar 27
84 °FClear.21 mph19%29.71 "Hg10 mi
11:20 PM84 °FClear.22 mph19%29.74 "Hg10 mi
10:50 PM84 °FClear.17 mph19%29.74 "Hg10 mi
10:20 PM84 °FClear.18 mph19%29.71 "Hg10 mi
9:50 PM86 °FClear.22 mph18%29.74 "Hg10 mi
9:20 PM86 °FClear.17 mph18%29.74 "Hg10 mi
8:50 PM86 °FClear.8 mph18%29.74 "Hg10 mi
8:20 PM84 °FClear.7 mph20%29.77 "Hg10 mi
7:50 PM81 °FClear.2 mph28%29.77 "Hg10 mi
7:20 PM81 °FClear.3 mph28%29.77 "Hg10 mi
6:50 PM81 °FSunny.6 mph28%29.77 "Hg10 mi
6:20 PM84 °FSunny.3 mph23%29.77 "Hg10 mi
5:50 PM86 °FSunny.8 mph20%29.74 "Hg10 mi
5:20 PM88 °FSunny.9 mph19%29.74 "Hg10 mi
4:50 PM90 °FSunny.13 mph17%29.77 "Hg10 mi
4:20 PM90 °FSunny.14 mph18%29.77 "Hg10 mi
3:50 PM90 °FSunny.14 mph17%29.77 "Hg10 mi
3:20 PM90 °FSunny.12 mph18%29.80 "Hg10 mi
2:50 PM90 °FSunny.16 mph17%29.80 "Hg10 mi
2:20 PM90 °FSunny.17 mph18%29.80 "Hg10 mi
1:50 PM90 °FSunny.17 mph18%29.83 "Hg10 mi
1:20 PM90 °FSunny.18 mph17%29.83 "Hg10 mi
Weather by CustomWeather, © 2015

See weather overviewHow to use our weather pages